"Pseudo-MPEC" for TF26E23

Created 2026 May 12 13:35:11 UT using Find_Orb

Click here for an explanation of pseudo-MPECs

 
 Astrometry: 
     TF26E23* C2026 05 09.21256113 18 33.929-06 06 12.19   ~595Z 16.06GVNEOCPU74
     TF26E23  C2026 05 09.21349713 18 33.152-06 06 07.75   ~595Z 16.06GVNEOCPU74

Station data:
(U74) JPL SynTrack Robotic Telescope 2, Auberry  (N37.070341 W119.412800)
   US/California.  Observers N. Saini, C. Zhai, R. Trahan, M. Zhan, M. Shao.
   0.36-m f/2.2 Schmidt.

Orbital elements:  TF26E23
   Perihelion 2026 Feb 15.712755 +/- 72.6 TT = 17:06:22.0 (JD 2461087.212755)
Epoch 2026 May  9.0 TT = JDT 2461169.5   Earth MOID: 0.0021   Ve: 0.0048
M 173.254665958 +/- 120             Me: 0.0233                   AutoNEOCP
n   2.105486298 +/- 0.897           Peri.  190.071468 +/- 60
a   0.602884941 +/- 0.171           Node   214.259242 +/- 100
e   0.96361239 +/- 0.228            Incl.    1.992668 +/- 80
P   0.468/170.979d         H 18.45  G  0.15   U 12.7  SR
q 0.021937540 +/- 0.391    Q 1.183832342 +/- 11.8         (J2000 ecliptic)
From 2 observations 2026 May 9 (80.9 sec); mean residual 0".00
Residuals in arcseconds: 
260509 U74  .00   .00     260509 U74  .00   .00     

Ephemerides (geocentric):
Date (UTC) HH   RA             Dec           delta  r     elong  mag " sig PA
---- --------  ------------   ------------  ------ ------ -----  --- --------
2026 05 12 14  12 38 52.620   -02 09 18.26  .22045 1.1838 138.2 17.0  17d  77
2026 05 12 15  12 38 27.512   -02 06 46.34  .22084 1.1838 138.1 17.0  18d  78
2026 05 12 16  12 38 02.502   -02 04 15.00  .22123 1.1838 137.9 17.0  18d  78
2026 05 12 17  12 37 37.589   -02 01 44.21  .22162 1.1838 137.8 17.0  18d  78
2026 05 12 18  12 37 12.773   -01 59 13.99  .22202 1.1838 137.6 17.0  19d  78
2026 05 12 19  12 36 48.053   -01 56 44.33  .22241 1.1838 137.5 17.0  19d  78
2026 05 12 20  12 36 23.429   -01 54 15.22  .22281 1.1838 137.3 17.0  19d  78
2026 05 12 21  12 35 58.901   -01 51 46.68  .22321 1.1838 137.2 17.0  20d  78
2026 05 12 22  12 35 34.469   -01 49 18.69  .22360 1.1838 137.0 17.0  20d  78
2026 05 12 23  12 35 10.131   -01 46 51.26  .22400 1.1838 136.9 17.0  20d  78
2026 05 13 00  12 34 45.889   -01 44 24.39  .22440 1.1838 136.7 17.0  20d  79
2026 05 13 01  12 34 21.741   -01 41 58.06  .22480 1.1838 136.6 17.0  21d  79
2026 05 13 02  12 33 57.687   -01 39 32.30  .22520 1.1838 136.4 17.0  21d  79
2026 05 13 03  12 33 33.728   -01 37 07.08  .22561 1.1837 136.3 17.1  21d  79
2026 05 13 04  12 33 09.861   -01 34 42.41  .22601 1.1837 136.1 17.1  21d  79
2026 05 13 05  12 32 46.088   -01 32 18.30  .22641 1.1837 136.0 17.1  22d  79
2026 05 13 06  12 32 22.408   -01 29 54.73  .22682 1.1837 135.9 17.1  22d  79
2026 05 13 07  12 31 58.821   -01 27 31.71  .22722 1.1837 135.7 17.1  22d  79
2026 05 13 08  12 31 35.325   -01 25 09.24  .22763 1.1837 135.6 17.1  22d  79
2026 05 13 09  12 31 11.922   -01 22 47.31  .22804 1.1837 135.4 17.1  23d  79
2026 05 13 10  12 30 48.610   -01 20 25.93  .22845 1.1837 135.3 17.1  23d  79
2026 05 13 11  12 30 25.390   -01 18 05.08  .22886 1.1837 135.1 17.1  23d  79
2026 05 13 12  12 30 02.260   -01 15 44.78  .22927 1.1837 135.0 17.1  23d  80
2026 05 13 13  12 29 39.221   -01 13 25.02  .22968 1.1837 134.8 17.1  23d  80
2026 05 13 14  12 29 16.273   -01 11 05.80  .23009 1.1836 134.7 17.1  24d  80
2026 05 13 15  12 28 53.414   -01 08 47.11  .23050 1.1836 134.6 17.1  24d  80
2026 05 13 16  12 28 30.645   -01 06 28.96  .23091 1.1836 134.4 17.1  24d  80
2026 05 13 17  12 28 07.965   -01 04 11.34  .23133 1.1836 134.3 17.2  24d  79
2026 05 13 18  12 27 45.374   -01 01 54.26  .23174 1.1836 134.1 17.2  24d  79
2026 05 13 19  12 27 22.872   -00 59 37.71  .23216 1.1836 134.0 17.2  25d  79
2026 05 13 20  12 27 00.458   -00 57 21.69  .23257 1.1836 133.8 17.2  25d  79
2026 05 13 21  12 26 38.132   -00 55 06.20  .23299 1.1835 133.7 17.2  25d  79
2026 05 13 22  12 26 15.894   -00 52 51.23  .23341 1.1835 133.6 17.2  25d  79
2026 05 13 23  12 25 53.743   -00 50 36.80  .23383 1.1835 133.4 17.2  26d  79
2026 05 14 00  12 25 31.679   -00 48 22.88  .23425 1.1835 133.3 17.2  26d  79
2026 05 14 01  12 25 09.702   -00 46 09.49  .23467 1.1835 133.2 17.2  26d  79
2026 05 14 02  12 24 47.811   -00 43 56.62  .23509 1.1835 133.0 17.2  27d  79
2026 05 14 03  12 24 26.006   -00 41 44.28  .23551 1.1835 132.9 17.2  27d  79
2026 05 14 04  12 24 04.287   -00 39 32.45  .23593 1.1834 132.7 17.2  27d  79
2026 05 14 05  12 23 42.653   -00 37 21.14  .23635 1.1834 132.6 17.2  28d  79
2026 05 14 06  12 23 21.105   -00 35 10.34  .23678 1.1834 132.5 17.2  28d  80
2026 05 14 07  12 22 59.641   -00 33 00.06  .23720 1.1834 132.3 17.2  28d  80
2026 05 14 08  12 22 38.261   -00 30 50.29  .23763 1.1834 132.2 17.3  28d  80
2026 05 14 09  12 22 16.966   -00 28 41.03  .23805 1.1834 132.1 17.3  29d  80
2026 05 14 10  12 21 55.754   -00 26 32.29  .23848 1.1833 131.9 17.3  29d  80
2026 05 14 11  12 21 34.626   -00 24 24.05  .23891 1.1833 131.8 17.3  29d  81
2026 05 14 12  12 21 13.581   -00 22 16.32  .23934 1.1833 131.6 17.3  29d  81
2026 05 14 13  12 20 52.618   -00 20 09.09  .23976 1.1833 131.5 17.3  30d  81